Wind_Speed
31 31 31 30 30 30 30 29 29 29 29 29 28 28 28 28 27 27 27 27 26 25 25 24 24 25 25 24 24 24 24 24 25 24 24 25 24 24 24 24 24 24 24
32 32 32 31 31 31 31 31 30 30 30 30 30 29 29 30 30 29 29 29 29 28 27 27 27 27 27 27 26 26 26 26 26 26 26 26 26 26 27 26 26 26 26
33 33 33 33 33 33 32 32 32 32 32 32 32 32 31 31 31 31 31 30 30 29 29 29 29 29 28 29 28 28 28 28 28 28 28 28 28 28 28 28 27 27 27
34 35 35 35 34 34 34 33 33 33 33 33 33 33 33 33 33 33 32 32 31 31 31 31 30 30 30 30 30 29 30 30 30 30 30 29 29 29 29 29 29 29 29
36 35 34 35 35 35 35 35 35 35 35 35 35 35 35 35 35 34 34 34 34 33 33 33 32 32 32 32 32 32 31 31 31 31 31 31 31 31 31 31 31 31 31
36 36 36 36 36 36 36 35 35 36 36 36 36 36 37 37 36 36 36 36 36 35 35 35 35 34 34 34 35 34 34 33 33 33 33 33 33 33 33 33 33 33 33
38 38 37 37 37 37 37 37 36 36 36 37 37 37 38 38 37 37 37 37 37 37 37 36 36 36 37 37 37 37 36 36 35 35 35 36 36 36 35 35 35 35 35
38 38 39 38 37 38 38 38 37 38 37 37 37 38 38 38 38 38 38 38 39 38 38 38 38 38 38 38 38 38 38 38 38 38 38 38 38 38 38 37 37 37 38
38 38 39 38 37 37 37 38 38 38 38 38 38 39 39 38 38 39 39 40 40 40 40 39 39 40 40 40 40 40 40 40 40 40 40 40 40 40 40 40 40 40 41
38 38 39 39 39 39 38 38 38 38 38 39 39 40 40 40 39 39 40 40 41 41 42 41 40 40 41 41 42 43 42 42 42 42 42 41 42 42 42 42 43 43 43
38 38 38 39 38 38 38 38 38 38 38 39 39 40 40 41 41 41 40 41 41 42 43 43 43 42 42 42 43 44 43 43 43 43 43 43 43 44 44 44 45 44 44
38 37 38 38 37 37 38 38 38 39 38 38 38 39 40 41 41 41 41 41 42 42 43 44 44 45 45 44 44 45 45 44 44 45 44 44 44 45 45 46 46 46 46
40 38 38 38 38 38 38 38 38 39 39 39 39 39 40 41 41 41 41 41 42 42 43 44 45 46 46 46 46 46 46 46 46 46 46 46 46 47 47 47 47 48 48
40 40 39 38 38 38 39 39 39 39 39 40 39 39 40 40 40 41 41 42 43 43 43 44 44 45 46 46 46 47 47 48 47 47 47 49 49 50 49 49 50 50 50
40 40 40 40 40 39 39 39 39 39 39 39 39 39 39 40 41 42 43 43 44 44 44 44 45 46 47 48 48 48 48 48 49 49 50 50 50 51 51 52 52 53 53
40 40 39 40 40 41 40 40 40 39 39 39 39 40 40 40 41 42 43 44 44 44 45 44 45 47 47 48 48 49 49 50 50 51 51 51 51 52 53 54 55 55 55
40 39 40 40 40 40 41 40 40 40 40 40 40 41 41 41 41 42 43 44 44 45 46 47 47 48 48 48 48 48 49 50 51 52 53 53 53 53 54 54 55 55 55
41 41 41 41 40 41 41 41 41 42 41 41 41 41 41 42 42 42 43 43 44 45 46 47 48 48 49 49 48 49 49 50 51 52 53 53 54 55 55 55 55 55 55
42 41 41 41 42 41 41 41 41 42 42 42 42 42 42 42 43 43 44 45 45 45 46 47 48 48 48 49 49 50 51 51 51 51 52 53 54 54 54 54 53 53 53
42 42 42 42 42 42 42 42 42 42 42 41 41 42 42 43 43 43 44 45 45 46 46 47 47 48 49 49 50 50 50 51 51 51 52 52 52 51 52 52 52 52 52
42 42 41 42 42 42 42 42 41 41 41 41 42 42 43 43 44 43 44 44 45 46 46 47 47 48 49 49 49 49 50 50 50 50 49 48 49 49 49 49 49 49 50
42 41 41 40 40 40 40 41 41 41 42 42 42 43 43 43 43 43 44 44 45 45 46 46 47 48 48 48 47 47 47 47 47 46 47 46 46 46 46 47 48 48 48
40 40 40 39 39 39 40 40 41 41 41 42 42 42 42 42 42 42 43 44 44 45 46 46 47 47 46 46 46 45 45 45 44 44 45 45 45 45 46 46 47 47 46
41 40 40 40 40 40 40 40 40 40 41 41 41 41 41 42 42 43 43 43 44 44 45 45 45 45 44 44 44 44 44 43 43 43 45 44 44 45 45 45 45 44 43
40 40 40 40 40 40 40 40 40 40 40 40 40 41 41 41 42 42 42 43 42 42 42 42 42 42 42 42 43 43 43 43 42 42 44 44 44 43 43 42 42 42 41
40 40 39 39 39 40 40 40 40 40 40 40 41 41 41 41 40 40 41 41 40 40 41 41 41 41 41 41 41 41 41 42 42 41 41 42 41 41 40 39 38 39 39
Wind_Direction
252 251 251 252 252 253 253 254 254 256 256 256 256 256 256 257 258 260 262 263 264 266 268 271 273 275 276 277 278 279 281 282 284 285 285 285 285 286 287 287 287 287 287
252 251 252 252 252 253 253 254 254 256 256 257 256 256 257 257 259 261 262 263 265 265 268 270 272 273 275 276 277 278 280 282 283 283 285 286 286 286 286 286 286 286 286
252 252 252 253 253 254 254 254 254 255 257 257 257 257 258 259 260 261 262 264 265 265 268 270 271 273 274 275 276 277 279 281 282 283 284 285 286 286 286 286 285 284 285
253 254 253 254 254 254 254 255 256 256 257 257 257 257 258 259 261 261 262 264 265 266 268 269 271 273 274 275 275 276 278 280 282 283 283 284 284 285 285 285 285 285 285
253 253 254 255 255 255 255 256 257 257 258 258 258 258 259 260 261 261 262 264 265 267 268 269 270 272 273 274 275 276 277 279 281 282 283 283 283 283 283 283 283 284 284
253 254 254 255 255 255 255 256 257 258 259 259 259 259 259 260 261 262 262 263 265 267 268 269 270 271 272 273 274 275 276 277 279 281 282 282 282 282 281 282 282 283 283
254 255 256 257 256 256 256 257 257 258 259 259 259 259 259 260 261 262 263 265 266 266 267 269 269 271 272 273 274 275 275 276 278 279 281 281 281 281 280 281 282 282 282
254 255 257 256 256 256 256 257 258 259 260 260 260 261 261 262 263 263 265 266 266 266 267 268 270 271 271 272 273 274 274 276 277 278 279 281 281 281 280 280 281 281 282
255 256 256 255 254 257 257 257 259 260 260 261 261 262 262 262 263 264 265 266 266 267 267 269 271 272 272 272 273 274 275 275 277 278 279 280 280 280 280 280 281 281 282
254 256 255 254 254 256 258 259 259 261 262 261 262 262 263 262 263 264 265 265 265 266 267 268 270 271 272 273 274 274 274 274 276 277 278 279 280 280 281 281 282 282 283
254 256 255 253 254 256 257 259 259 261 263 263 263 263 263 264 264 265 265 265 266 266 267 268 269 272 273 273 274 275 274 275 276 276 277 278 280 280 281 281 281 281 282
252 254 254 252 253 255 257 258 260 260 263 264 264 264 265 265 266 265 266 266 267 267 268 269 270 271 273 273 275 275 276 277 277 277 277 278 279 280 281 281 281 281 282
251 253 253 252 252 254 257 258 259 261 262 263 264 265 266 266 266 266 267 268 268 269 269 269 270 271 272 273 273 274 276 278 278 278 277 278 279 280 281 281 281 282 282
250 251 253 253 253 254 257 258 260 261 263 263 264 267 267 267 267 268 268 269 270 270 271 270 271 272 272 273 275 276 277 277 278 278 278 278 279 280 281 281 282 282 283
250 251 252 253 253 255 257 259 260 262 263 264 265 267 268 268 269 269 270 270 271 271 271 271 272 273 274 275 276 276 276 277 277 278 279 280 280 280 281 282 283 283 284
249 251 253 253 254 255 257 259 261 262 263 264 266 268 270 271 271 271 271 271 271 271 272 273 274 274 275 275 276 276 276 276 277 279 280 281 281 282 282 282 283 283 284
250 252 254 255 255 256 258 259 261 263 263 265 266 269 270 271 272 272 271 271 271 272 273 273 275 276 276 276 276 277 277 278 279 279 280 281 282 283 283 283 283 284 284
250 253 254 255 256 256 258 260 262 263 263 265 267 268 271 272 272 273 273 273 274 274 274 274 275 276 277 278 278 278 279 279 280 280 282 282 283 284 284 284 285 285 286
251 253 254 255 255 258 260 261 263 263 264 266 267 269 271 273 274 274 275 275 275 275 276 276 277 278 278 279 279 279 279 279 280 281 282 282 283 284 284 285 285 286 286
250 252 254 255 256 258 259 260 262 264 265 267 268 270 272 273 274 275 276 276 276 277 277 278 278 279 280 280 280 280 281 280 281 281 282 283 284 284 285 286 286 286 286
249 251 253 255 256 258 259 261 262 264 266 267 269 271 272 274 274 276 276 277 277 278 279 279 279 279 280 281 281 281 281 281 281 282 283 284 284 284 285 285 286 286 286
250 251 252 253 255 257 259 261 262 264 266 268 270 271 272 274 275 276 277 278 279 279 279 280 281 280 280 281 281 282 282 282 282 282 283 284 284 284 285 286 287 287 287
250 251 252 253 254 256 259 261 263 265 267 269 271 272 273 274 275 277 278 280 280 280 280 280 280 280 280 280 281 282 283 282 281 282 283 284 284 286 286 287 288 288 288
249 251 252 253 255 258 260 262 264 266 268 269 270 270 272 273 274 276 279 281 281 281 281 281 280 281 280 280 281 281 282 281 281 282 284 285 285 286 287 288 288 288 289
249 251 253 254 256 258 260 262 264 266 268 268 269 270 272 273 275 277 279 282 282 282 282 282 281 281 281 280 280 281 282 281 282 284 285 287 286 287 287 287 288 289 289
249 252 252 254 257 258 260 262 264 266 267 269 270 271 272 274 275 278 281 283 283 282 282 282 282 281 281 281 281 282 283 284 285 286 286 287 287 288 288 287 289 289 290
Height
5805 5807 5809 5811 5813 5814 5816 5818 5819 5821 5822 5824 5825 5826 5827 5828 5830 5831 5832 5833 5833 5834 5835 5835 5835 5835 5836 5836 5836 5836 5835 5835 5834 5834 5833 5832 5832 5831 5830 5829 5828 5827 5827
5799 5800 5802 5804 5806 5808 5810 5811 5813 5814 5816 5817 5819 5820 5821 5822 5823 5825 5825 5826 5827 5828 5828 5829 5829 5830 5830 5830 5830 5830 5830 5829 5829 5828 5828 5827 5826 5825 5825 5824 5823 5822 5821
5791 5793 5795 5797 5799 5801 5803 5804 5806 5807 5809 5810 5811 5813 5814 5815 5817 5818 5819 5820 5820 5821 5822 5822 5823 5823 5823 5823 5823 5823 5823 5823 5823 5822 5821 5821 5820 5819 5818 5818 5817 5816 5815
5784 5786 5788 5790 5791 5793 5795 5797 5798 5800 5801 5802 5804 5805 5807 5808 5809 5810 5811 5812 5813 5814 5815 5815 5816 5816 5816 5816 5816 5817 5816 5816 5816 5815 5815 5814 5813 5812 5812 5811 5810 5809 5808
5776 5778 5780 5782 5783 5785 5787 5788 5790 5792 5793 5794 5796 5797 5799 5800 5801 5802 5803 5805 5806 5806 5807 5807 5808 5808 5808 5809 5809 5809 5809 5809 5809 5808 5807 5807 5806 5805 5804 5804 5803 5802 5801
5768 5770 5771 5773 5775 5776 5778 5780 5781 5783 5784 5786 5787 5788 5790 5791 5792 5794 5795 5796 5797 5798 5799 5799 5800 5800 5800 5800 5801 5801 5801 5801 5801 5800 5800 5799 5798 5797 5796 5796 5795 5794 5793
5759 5761 5763 5764 5766 5767 5769 5771 5772 5774 5775 5776 5778 5779 5781 5782 5784 5785 5786 5787 5788 5789 5790 5790 5791 5792 5792 5792 5792 5792 5792 5792 5792 5792 5791 5790 5789 5789 5788 5787 5786 5785 5785
5750 5751 5753 5755 5756 5758 5760 5761 5763 5765 5766 5767 5769 5770 5772 5774 5774 5775 5777 5778 5778 5779 5780 5781 5782 5782 5783 5783 5783 5783 5783 5783 5783 5782 5782 5781 5780 5779 5778 5778 5777 5776 5775
5740 5741 5743 5745 5747 5749 5751 5752 5754 5756 5757 5758 5759 5761 5762 5764 5765 5766 5767 5768 5769 5770 5771 5772 5772 5773 5773 5773 5773 5773 5773 5773 5773 5772 5772 5771 5770 5769 5768 5768 5767 5766 5765
5730 5731 5733 5735 5738 5740 5742 5743 5745 5746 5747 5749 5750 5751 5753 5754 5755 5757 5758 5758 5759 5760 5761 5762 5763 5763 5763 5763 5763 5763 5763 5763 5762 5762 5761 5761 5760 5759 5758 5757 5756 5755 5753
5720 5722 5723 5725 5728 5731 5733 5734 5736 5737 5738 5739 5740 5741 5742 5744 5745 5746 5748 5748 5749 5750 5751 5752 5752 5753 5752 5753 5753 5752 5752 5752 5752 5751 5751 5750 5749 5748 5747 5746 5744 5743 5742
5711 5713 5714 5717 5719 5722 5724 5725 5727 5728 5729 5730 5731 5732 5732 5733 5734 5736 5737 5738 5739 5740 5740 5741 5742 5742 5742 5742 5742 5742 5742 5741 5740 5740 5739 5738 5737 5736 5735 5734 5732 5731 5729
5701 5704 5706 5708 5711 5713 5715 5716 5717 5719 5720 5721 5721 5722 5723 5723 5724 5725 5726 5727 5728 5729 5730 5730 5731 5731 5731 5731 5731 5730 5730 5729 5729 5728 5727 5726 5725 5724 5723 5721 5720 5718 5717
5692 5694 5697 5699 5701 5704 5706 5707 5708 5710 5710 5711 5712 5712 5713 5713 5714 5715 5716 5717 5718 5719 5719 5720 5720 5720 5720 5719 5719 5718 5718 5718 5717 5716 5715 5714 5713 5711 5710 5708 5707 5705 5703
5682 5685 5687 5690 5692 5694 5696 5698 5699 5700 5701 5702 5702 5703 5703 5704 5704 5705 5705 5706 5707 5708 5709 5709 5709 5708 5708 5707 5707 5707 5706 5706 5705 5704 5703 5701 5700 5698 5696 5695 5693 5691 5688
5672 5675 5678 5680 5683 5685 5686 5688 5689 5690 5691 5692 5693 5693 5694 5694 5694 5694 5695 5695 5696 5696 5697 5698 5697 5696 5696 5695 5695 5694 5694 5693 5692 5691 5690 5688 5686 5684 5682 5680 5678 5676 5673
5663 5666 5668 5671 5673 5675 5677 5679 5680 5681 5682 5682 5683 5684 5684 5684 5684 5684 5684 5684 5684 5685 5685 5686 5685 5684 5683 5683 5682 5682 5681 5680 5678 5677 5676 5674 5672 5670 5667 5665 5663 5660 5657
5653 5656 5658 5661 5663 5665 5667 5669 5670 5671 5672 5672 5673 5674 5674 5674 5673 5673 5673 5673 5673 5673 5673 5674 5673 5672 5671 5670 5669 5669 5668 5666 5665 5663 5661 5659 5657 5654 5652 5649 5647 5644 5642
5643 5645 5648 5650 5653 5655 5657 5659 5660 5661 5662 5662 5663 5663 5663 5663 5663 5662 5662 5661 5661 5661 5661 5661 5661 5660 5659 5657 5656 5655 5654 5653 5651 5649 5647 5645 5642 5639 5637 5634 5631 5629 5626
5632 5635 5638 5640 5642 5644 5647 5648 5649 5650 5651 5652 5652 5653 5653 5652 5652 5651 5650 5650 5649 5649 5648 5648 5648 5647 5646 5644 5643 5642 5641 5639 5638 5635 5633 5630 5628 5625 5623 5620 5617 5614 5611
5622 5625 5627 5630 5632 5634 5636 5637 5638 5639 5640 5641 5641 5641 5641 5641 5640 5639 5639 5638 5637 5636 5635 5635 5634 5633 5632 5631 5629 5628 5627 5626 5624 5621 5619 5617 5614 5612 5609 5605 5602 5599 5596
5612 5614 5617 5619 5621 5623 5625 5626 5627 5628 5629 5630 5631 5630 5630 5629 5629 5628 5627 5626 5625 5624 5623 5622 5621 5620 5619 5617 5616 5614 5613 5612 5611 5609 5606 5605 5601 5598 5595 5592 5589 5586 5583
5601 5604 5606 5609 5611 5613 5614 5615 5617 5618 5619 5619 5619 5619 5619 5618 5618 5617 5616 5614 5613 5611 5610 5609 5608 5607 5606 5605 5603 5602 5600 5598 5597 5595 5592 5592 5589 5586 5582 5579 5576 5573 5570
5591 5594 5596 5599 5601 5603 5604 5605 5606 5607 5607 5608 5608 5608 5608 5608 5607 5606 5605 5604 5602 5600 5599 5597 5595 5594 5592 5591 5590 5589 5587 5586 5585 5582 5579 5578 5576 5574 5570 5566 5563 5560 5557
5581 5583 5586 5588 5590 5592 5593 5594 5595 5596 5597 5597 5597 5597 5597 5597 5596 5595 5594 5593 5591 5589 5587 5585 5583 5581 5580 5579 5577 5576 5575 5574 5573 5571 5567 5565 5563 5561 5559 5555 5551 5548 5546
5570 5573 5575 5577 5579 5581 5582 5583 5584 5585 5586 5587 5587 5587 5586 5586 5585 5584 5583 5582 5580 5578 5576 5574 5572 5570 5569 5567 5566 5564 5563 5562 5560 5559 5556 5553 5551 5548 5548 5545 5541 5538 5535